Regional Weather Roundup
Issued by NWS Newport/Morehead, NC

Current Version | Previous Version | Text Only | Print | Product List | Glossary On
Versions: 1 2 3 4 5 6 7 8 9 10 11 12 13 14 15 16 17 18 19 20 21 22 23 24 25 26 27 28 29 30 31 32 33 34 35 36 37 38 39 40 41 42 43 44 45 46 47 48 49 50
000 ASUS42 KMHX 242013 RWRMHX WEATHER ROUNDUP FOR EASTERN NORTH CAROLINA NATIONAL WEATHER SERVICE NEWPORT/MOREHEAD CITY NC 300 PM EST SAT FEB 24 2018 NOTE: "FAIR" INDICATES FEW OR NO CLOUDS BELOW 12,000 FEET WITH NO SIGNIFICANT WEATHER AND/OR OBSTRUCTIONS TO VISIBILITY NCZ015>017-031-032-045>047-102-103-242100- NORTH COAST CITY SKY/WX TMP DP RH WIND PRES REMARKS EDENTON FAIR 75 62 62 SW10 30.13S ELIZABETH CITY FAIR 76 62 62 SW15 30.11F KITTY HAWK FAIR 76 59 53 W7 30.11S MANTEO PTSUNNY 73 59 61 W10 30.12F $$ NCZ045>047-081-094-103-104-242100- CENTRAL COAST CITY SKY/WX TMP DP RH WIND PRES REMARKS FRISCO FAIR 70 63 78 SW9 30.16F $$ NCZ095-097-098-100-101-242100- SOUTHERN COAST CITY SKY/WX TMP DP RH WIND PRES REMARKS BEAUFORT FAIR 71 62 73 SW16 30.16F CEDAR ISLAND NOT AVBL JACKSONVILLE PTSUNNY 79 61 53 SW9G16 30.13F PINEY ISLAND NOT AVBL WILMINGTON FAIR 77 61 57 SW14G25 30.14F $$ NCZ011>013-027>030-043-044-078>080-089-090>093-098-242100- COASTAL PLAIN CITY SKY/WX TMP DP RH WIND PRES REMARKS AHOSKIE FAIR 76 60 56 S6 30.10F CLINTON FAIR 78 62 57 SW8 30.12F ELIZABETHTOWN NOT AVBL GOLDSBORO FAIR 77 60 55 SW14G21 30.10F GREENVILLE FAIR 77 59 53 SW12G17 30.13F HAVELOCK NOT AVBL KENANSVILLE FAIR 79 59 50 SW7 30.13F KINSTON FAIR 79 75 89 SW12G17 30.13F NEW BERN FAIR 76 60 57 W10 30.14F RICHLANDS FAIR 81 60 48 SW10G16 30.13 ROCKY MOUNT FAIR 75 60 59 S14G20 30.11F WASHINGTON FAIR 78 59 50 SW15 30.13F WHITEVILLE FAIR 80 58 47 W6 30.13F $$ AMZ130-135-150-152-154-156-158-170-250-252-270-ANZ085-086-088-633-658-670-242100- MARINE OBSERVATIONS STATION/POSITION TIME TEMP WIND PRES WAVE SWELL AIR SEA DIR/SP/G HT/PER HT/PER (UTC) (F) (DEG/KT/KT) (MB) (FT/S) (FT/S) CHESAPEAKE LIGHT NOT AVBL 64 E VA BEACH 1950 53 50 210/ 6/ 6 1020.4 3/ 8 3/ 8 DUCK 1948 69 47 230/ 7/ 10 1019.4 2 E DUCK 2000 49 N/A 2/ 7 2/11 OREGON INLET 1942 62 58 190/ 14/ 15 1020.3 13E OREGON INLT 1948 50 N/A 3/10 3/10 HATTERAS CG 1948 68 61 230/ 10/ 14 1021.0 DIAMOND BUOY 2000 72 230/ 17/ 23 N/A CAPE LOOKOUT 2000 210/ 12/ 15 1021.7 BEAUFORT LAB 1948 68 59 210/ 10/ 14 1021.4 30 SE NEW RVR IN 1908 71 69 230/ 12/ 16 1022.1 30 SE NEW RVR IN 2000 69 N/A 4/10 2/11 27 SE WRIGHTSVLE 1908 69 69 220/ 14/ 19 1022.4 5 SE WRIGHTSVLE 1908 64 60 210/ 12/ 16 1021.9 225 S CAPE HAT 1950 72 73 210/ 8/ 10 1023.7 5/ 9 5/ 9 41 SE CHARLESTON 1950 71 71 230/ 6/ 8 1021.9 4/ 9 3/ 9 $$

USA.gov is the U.S. government's official web portal to all federal, state and local government web resources and services.